,,PA_Meas_PMT16A,,PR_Meas_QMR101_102,,RH_Meas_QMH101,,SR_Meas_QMS101,,TA_Meas_QMH101,,GenWind,,GenWind,
time,status,PA,status,PR,status,RH,status,SR,status,TA,status,DirAvg,status,SpdAvg,
2013-11-08, 05:19:04,VALID,915.692,VALID,0,VALID,96.9927,VALID,0,VALID,19.0788,VALID,331,VALID,0,
2013-11-08, 05:20:04,VALID,915.696,VALID,0,VALID,96.9927,VALID,0,VALID,19.0998,VALID,331,VALID,0,
2013-11-08, 05:21:04,VALID,915.675,VALID,0,VALID,96.9698,VALID,0,VALID,19.0788,VALID,331,VALID,0,
2013-11-08, 05:22:04,VALID,915.705,VALID,0,VALID,96.9698,VALID,0,VALID,19.0774,VALID,331,VALID,0,
2013-11-08, 05:23:04,VALID,915.675,VALID,0,VALID,96.9698,VALID,0.107441,VALID,19.0803,VALID,331,VALID,0,
2013-11-08, 05:24:04,VALID,915.733,VALID,0,VALID,96.9775,VALID,0,VALID,19.0593,VALID,331,VALID,0,
2013-11-08, 05:25:04,VALID,915.687,VALID,0,VALID,96.9775,VALID,0,VALID,19.0803,VALID,331,VALID,0,
2013-11-08, 05:26:04,VALID,915.717,VALID,0,VALID,96.9546,VALID,0,VALID,19.0788,VALID,331,VALID,0,
2013-11-08, 05:27:04,VALID,915.709,VALID,0,VALID,96.9546,VALID,0,VALID,19.1012,VALID,331,VALID,0,
2013-11-08, 05:28:04,VALID,915.71,VALID,0,VALID,96.947,VALID,0,VALID,19.0398,VALID,331,VALID,0,
2013-11-08, 05:29:04,VALID,915.707,VALID,0,VALID,96.947,VALID,0,VALID,19.0803,VALID,331,VALID,0,
2013-11-08, 05:30:04,VALID,915.728,VALID,0,VALID,96.947,VALID,0,VALID,19.0803,VALID,331,VALID,0,
2013-11-08, 05:31:04,VALID,915.733,VALID,0,VALID,96.9394,VALID,0,VALID,19.0218,VALID,331,VALID,0,
2013-11-08, 05:32:04,VALID,915.755,VALID,0,VALID,96.9317,VALID,0.107441,VALID,19.0023,VALID,331,VALID,0,
2013-11-08, 05:33:04,VALID,915.774,VALID,0,VALID,96.9165,VALID,0.107441,VALID,18.9424,VALID,332,VALID,0,
2013-11-08, 05:34:04,VALID,915.783,VALID,0,VALID,96.9241,VALID,0,VALID,18.8824,VALID,331,VALID,0,
2013-11-08, 05:35:04,VALID,915.811,VALID,0,VALID,96.9089,VALID,0,VALID,18.9034,VALID,331,VALID,0,
2013-11-08, 05:36:04,VALID,915.809,VALID,0,VALID,96.9012,VALID,0,VALID,18.9048,VALID,331,VALID,0,
2013-11-08, 05:37:04,VALID,915.816,VALID,0,VALID,96.9012,VALID,0,VALID,18.8853,VALID,331,VALID,0,
2013-11-08, 05:38:04,VALID,915.833,VALID,0,VALID,96.9012,VALID,0,VALID,18.8449,VALID,331,VALID,0,
2013-11-08, 05:39:04,VALID,915.874,VALID,0,VALID,96.8936,VALID,0,VALID,18.8268,VALID,332,VALID,0,
2013-11-08, 05:40:04,VALID,915.871,VALID,0,VALID,96.9317,VALID,0,VALID,18.8073,VALID,332,VALID,0,
2013-11-08, 05:41:04,VALID,915.882,VALID,0,VALID,96.9012,VALID,0,VALID,18.7864,VALID,332,VALID,0,
2013-11-08, 05:42:04,VALID,915.903,VALID,0,VALID,96.9165,VALID,0.107441,VALID,18.8463,VALID,331,VALID,0,
2013-11-08, 05:43:04,VALID,915.888,VALID,0,VALID,96.9317,VALID,0.107441,VALID,18.824,VALID,331,VALID,0,
2013-11-08, 05:44:04,VALID,915.906,VALID,0,VALID,96.947,VALID,0,VALID,18.8644,VALID,331,VALID,0,
2013-11-08, 05:45:04,VALID,915.908,VALID,0,VALID,96.947,VALID,0,VALID,18.8839,VALID,277,VALID,0,
2013-11-08, 05:46:04,VALID,915.913,VALID,0,VALID,96.9546,VALID,0.107441,VALID,18.8853,VALID,189,VALID,0,
2013-11-08, 05:47:04,VALID,915.928,VALID,0,VALID,96.9698,VALID,0.107441,VALID,18.9048,VALID,189,VALID,0,
2013-11-08, 05:48:04,VALID,915.947,VALID,0,VALID,96.9775,VALID,0.107441,VALID,18.9034,VALID,189,VALID,0,
2013-11-08, 05:49:04,VALID,915.942,VALID,0,VALID,96.9851,VALID,0.107441,VALID,18.9438,VALID,189,VALID,0,
2013-11-08, 05:50:04,VALID,915.953,VALID,0,VALID,96.9775,VALID,0,VALID,18.9633,VALID,189,VALID,0,
2013-11-08, 05:51:04,VALID,915.978,VALID,0,VALID,96.9927,VALID,0.107441,VALID,18.9619,VALID,189,VALID,0,
2013-11-08, 05:52:04,VALID,915.987,VALID,0,VALID,97.008,VALID,0.214882,VALID,19.0232,VALID,189,VALID,0,
2013-11-08, 05:53:04,VALID,916.009,VALID,0,VALID,97.0156,VALID,0.214882,VALID,19.0008,VALID,189,VALID,0,
2013-11-08, 05:54:04,VALID,915.988,VALID,0,VALID,97.0308,VALID,0.322323,VALID,19.0203,VALID,189,VALID,0,
2013-11-08, 05:55:04,VALID,915.988,VALID,0,VALID,97.0232,VALID,0.322323,VALID,19.0398,VALID,189,VALID,0,
2013-11-08, 05:56:04,VALID,916.005,VALID,0,VALID,97.008,VALID,0.429765,VALID,19.0608,VALID,189,VALID,0,
2013-11-08, 05:57:04,VALID,916.009,VALID,0,VALID,97.0308,VALID,0.644647,VALID,19.0593,VALID,189,VALID,0,
2013-11-08, 05:58:04,VALID,916.01,VALID,0,VALID,97.0537,VALID,0.752088,VALID,19.0398,VALID,189,VALID,0,
2013-11-08, 05:59:04,VALID,916.024,VALID,0,VALID,97.0537,VALID,0.96697,VALID,19.0398,VALID,189,VALID,0,
2013-11-08, 06:00:04,VALID,916.051,VALID,0,VALID,97.0385,VALID,1.07441,VALID,19.0788,VALID,189,VALID,0,
2013-11-08, 06:01:04,VALID,916.072,VALID,0,VALID,97.0385,VALID,0.96697,VALID,19.0983,VALID,189,VALID,0,
2013-11-08, 06:02:04,VALID,916.075,VALID,0,VALID,97.0537,VALID,1.07441,VALID,19.0788,VALID,189,VALID,0,
2013-11-08, 06:03:04,VALID,916.081,VALID,0,VALID,97.0385,VALID,1.28929,VALID,19.0788,VALID,189,VALID,0,
2013-11-08, 06:04:04,VALID,916.101,VALID,0,VALID,97.0385,VALID,1.61162,VALID,19.0788,VALID,189,VALID,0,
2013-11-08, 06:05:04,VALID,916.126,VALID,0,VALID,97.0385,VALID,2.04138,VALID,19.0788,VALID,189,VALID,0,
2013-11-08, 06:06:04,VALID,916.139,VALID,0,VALID,97.0766,VALID,2.36371,VALID,19.0593,VALID,189,VALID,0,
2013-11-08, 06:07:04,VALID,916.144,VALID,0,VALID,97.0613,VALID,2.90091,VALID,19.0983,VALID,189,VALID,0,
2013-11-08, 06:08:04,VALID,916.117,VALID,0,VALID,97.069,VALID,3.54556,VALID,19.0998,VALID,189,VALID,0,
2013-11-08, 06:09:04,VALID,916.132,VALID,0,VALID,97.069,VALID,4.08276,VALID,19.0788,VALID,189,VALID,0,
2013-11-08, 06:10:04,VALID,916.132,VALID,0,VALID,97.0766,VALID,4.72741,VALID,19.0593,VALID,189,VALID,0,
2013-11-08, 06:11:04,VALID,916.106,VALID,0,VALID,97.1147,VALID,5.37206,VALID,19.0803,VALID,189,VALID,0,
2013-11-08, 06:12:04,VALID,916.125,VALID,0,VALID,97.0994,VALID,6.0167,VALID,19.0189,VALID,189,VALID,0,
2013-11-08, 06:13:04,VALID,916.124,VALID,0,VALID,97.0613,VALID,6.55391,VALID,19.0398,VALID,189,VALID,0,
2013-11-08, 06:14:04,VALID,916.116,VALID,0,VALID,97.0842,VALID,7.09112,VALID,19.0398,VALID,189,VALID,0,
2013-11-08, 06:15:04,VALID,916.114,VALID,0,VALID,97.0918,VALID,7.62832,VALID,19.0008,VALID,189,VALID,0,
2013-11-08, 06:16:04,VALID,916.157,VALID,0,VALID,97.1071,VALID,8.16553,VALID,19.0413,VALID,189,VALID,0,
2013-11-08, 06:17:04,VALID,916.156,VALID,0,VALID,97.0918,VALID,8.81017,VALID,19.0218,VALID,189,VALID,0,
2013-11-08, 06:18:04,VALID,916.138,VALID,0,VALID,97.1223,VALID,9.34738,VALID,19.0218,VALID,189,VALID,0,
2013-11-08, 06:19:04,VALID,916.181,VALID,0,VALID,97.1147,VALID,9.99203,VALID,19.0023,VALID,189,VALID,0,
2013-11-08, 06:20:04,VALID,916.159,VALID,0,VALID,97.1071,VALID,10.6367,VALID,18.9814,VALID,189,VALID,0,
2013-11-08, 06:21:04,VALID,916.196,VALID,0,VALID,97.1299,VALID,11.4962,VALID,18.9828,VALID,189,VALID,0,
2013-11-08, 06:22:04,VALID,916.172,VALID,0,VALID,97.1299,VALID,12.3557,VALID,18.9814,VALID,189,VALID,0,
2013-11-08, 06:23:04,VALID,916.204,VALID,0,VALID,97.1223,VALID,13.3227,VALID,18.9828,VALID,189,VALID,0,
2013-11-08, 06:24:04,VALID,916.222,VALID,0,VALID,97.1223,VALID,14.0748,VALID,18.9619,VALID,189,VALID,0,
2013-11-08, 06:25:04,VALID,916.175,VALID,0,VALID,97.1147,VALID,14.9343,VALID,18.9828,VALID,189,VALID,0,
2013-11-08, 06:26:04,VALID,916.224,VALID,0,VALID,97.1299,VALID,15.7938,VALID,18.9619,VALID,146,VALID,0,
2013-11-08, 06:27:04,VALID,916.222,VALID,0,VALID,97.1223,VALID,16.7608,VALID,18.9814,VALID,146,VALID,0,
2013-11-08, 06:28:04,VALID,916.216,VALID,0,VALID,97.1299,VALID,17.6203,VALID,18.9814,VALID,146,VALID,0,
2013-11-08, 06:29:04,VALID,916.247,VALID,0,VALID,97.1147,VALID,18.265,VALID,19.0008,VALID,146,VALID,0,
2013-11-08, 06:30:04,VALID,916.245,VALID,0,VALID,97.1452,VALID,18.8022,VALID,19.0023,VALID,146,VALID,0,
2013-11-08, 06:31:04,VALID,916.257,VALID,0,VALID,97.1452,VALID,19.6617,VALID,18.9814,VALID,146,VALID,0,
2013-11-08, 06:32:04,VALID,916.291,VALID,0,VALID,97.1528,VALID,20.5213,VALID,19.0203,VALID,146,VALID,0,
2013-11-08, 06:33:04,VALID,916.292,VALID,0,VALID,97.1299,VALID,21.4882,VALID,19.0008,VALID,146,VALID,0,
2013-11-08, 06:34:04,VALID,916.343,VALID,0,VALID,97.1376,VALID,22.5626,VALID,19.0203,VALID,146,VALID,0,
2013-11-08, 06:35:04,VALID,916.336,VALID,0,VALID,97.1528,VALID,23.4222,VALID,19.0398,VALID,146,VALID,0,
2013-11-08, 06:36:04,VALID,916.332,VALID,0,VALID,97.1528,VALID,24.604,VALID,19.0593,VALID,146,VALID,0,
2013-11-08, 06:37:04,VALID,916.358,VALID,0,VALID,97.1452,VALID,25.3561,VALID,19.0788,VALID,146,VALID,0,
2013-11-08, 06:38:04,VALID,916.366,VALID,0,VALID,97.1604,VALID,25.7859,VALID,19.0788,VALID,146,VALID,0,
2013-11-08, 06:39:04,VALID,916.38,VALID,0,VALID,97.1452,VALID,26.2156,VALID,19.1388,VALID,146,VALID,0,
2013-11-08, 06:40:04,VALID,916.406,VALID,0,VALID,97.1452,VALID,26.7528,VALID,19.1373,VALID,146,VALID,0,
2013-11-08, 06:41:04,VALID,916.413,VALID,0,VALID,97.1604,VALID,27.2901,VALID,19.1568,VALID,146,VALID,0,
2013-11-08, 06:42:04,VALID,916.439,VALID,0,VALID,97.1604,VALID,27.8273,VALID,19.1778,VALID,146,VALID,0,
2013-11-08, 06:43:04,VALID,916.435,VALID,0,VALID,97.1528,VALID,28.4719,VALID,19.1973,VALID,146,VALID,0,
2013-11-08, 06:44:04,VALID,916.429,VALID,0,VALID,97.1452,VALID,29.224,VALID,19.1958,VALID,146,VALID,0,
2013-11-08, 06:45:04,VALID,916.445,VALID,0,VALID,97.1604,VALID,30.2984,VALID,19.2363,VALID,146,VALID,0,
2013-11-08, 06:46:04,VALID,916.458,VALID,0,VALID,97.1528,VALID,31.3728,VALID,19.2348,VALID,146,VALID,0,
2013-11-08, 06:47:04,VALID,916.461,VALID,0,VALID,97.1604,VALID,32.2323,VALID,19.2558,VALID,146,VALID,0,
2013-11-08, 06:48:04,VALID,916.477,VALID,0,VALID,97.1604,VALID,32.7696,VALID,19.2738,VALID,146,VALID,0,
2013-11-08, 06:49:04,VALID,916.48,VALID,0,VALID,97.1604,VALID,33.1993,VALID,19.3338,VALID,146,VALID,0,
2013-11-08, 06:50:04,VALID,916.487,VALID,0,VALID,97.1452,VALID,33.5216,VALID,19.3533,VALID,146,VALID,0,
2013-11-08, 06:51:04,VALID,916.477,VALID,0,VALID,97.1528,VALID,34.0588,VALID,19.3713,VALID,146,VALID,0,
2013-11-08, 06:52:04,VALID,916.47,VALID,0,VALID,97.1528,VALID,34.8109,VALID,19.4103,VALID,146,VALID,0,
2013-11-08, 06:53:04,VALID,916.488,VALID,0,VALID,97.1299,VALID,35.563,VALID,19.3908,VALID,146,VALID,0,
2013-11-08, 06:54:04,VALID,916.5,VALID,0,VALID,97.1604,VALID,36.2077,VALID,19.3908,VALID,146,VALID,0,
2013-11-08, 06:55:04,VALID,916.519,VALID,0,VALID,97.1452,VALID,37.497,VALID,19.3908,VALID,146,VALID,0,
2013-11-08, 06:56:04,VALID,916.49,VALID,0,VALID,97.1604,VALID,39.216,VALID,19.3908,VALID,146,VALID,0,
2013-11-08, 06:57:04,VALID,916.503,VALID,0,VALID,97.1528,VALID,40.7202,VALID,19.3908,VALID,146,VALID,0,
2013-11-08, 06:58:04,VALID,916.503,VALID,0,VALID,97.1528,VALID,41.4723,VALID,19.4103,VALID,146,VALID,0,
2013-11-08, 06:59:04,VALID,916.518,VALID,0,VALID,97.1376,VALID,42.869,VALID,19.4298,VALID,146,VALID,0,
2013-11-08, 07:00:04,VALID,916.535,VALID,0,VALID,97.1452,VALID,45.3402,VALID,19.4298,VALID,146,VALID,0,
2013-11-08, 07:01:04,VALID,916.544,VALID,0,VALID,97.1376,VALID,48.0262,VALID,19.5093,VALID,146,VALID,0,
2013-11-08, 07:02:04,VALID,916.559,VALID,0,VALID,97.1528,VALID,50.3899,VALID,19.5078,VALID,146,VALID,0,
2013-11-08, 07:03:04,VALID,916.552,VALID,0,VALID,97.1376,VALID,52.861,VALID,19.5273,VALID,146,VALID,0,
2013-11-08, 07:04:04,VALID,916.578,VALID,0,VALID,97.1299,VALID,55.8694,VALID,19.6068,VALID,146,VALID,0,
2013-11-08, 07:05:04,VALID,916.567,VALID,0,VALID,97.1299,VALID,58.1257,VALID,19.6248,VALID,146,VALID,0,
2013-11-08, 07:06:04,VALID,916.547,VALID,0,VALID,97.1147,VALID,59.5224,VALID,19.6248,VALID,146,VALID,0,
2013-11-08, 07:07:04,VALID,916.567,VALID,0,VALID,97.1223,VALID,61.4563,VALID,19.6638,VALID,146,VALID,0,
2013-11-08, 07:08:04,VALID,916.554,VALID,0,VALID,97.1071,VALID,62.9605,VALID,19.7238,VALID,146,VALID,0,
2013-11-08, 07:09:04,VALID,916.553,VALID,0,VALID,97.1299,VALID,64.787,VALID,19.7208,VALID,146,VALID,0,
2013-11-08, 07:10:04,VALID,916.571,VALID,0,VALID,97.1071,VALID,66.6135,VALID,19.7223,VALID,146,VALID,0,
2013-11-08, 07:11:04,VALID,916.581,VALID,0,VALID,97.1147,VALID,68.9772,VALID,19.7028,VALID,146,VALID,0,
2013-11-08, 07:12:04,VALID,916.599,VALID,0,VALID,97.1223,VALID,71.9856,VALID,19.7028,VALID,146,VALID,0,
2013-11-08, 07:13:04,VALID,916.613,VALID,0,VALID,97.0994,VALID,73.9195,VALID,19.7223,VALID,146,VALID,0,
2013-11-08, 07:14:04,VALID,916.626,VALID,0,VALID,97.0842,VALID,75.3162,VALID,19.7418,VALID,146,VALID,0,
2013-11-08, 07:15:04,VALID,916.641,VALID,0,VALID,97.0918,VALID,77.1427,VALID,19.8198,VALID,146,VALID,0,
2013-11-08, 07:16:04,VALID,916.679,VALID,0,VALID,97.0842,VALID,79.6139,VALID,19.8588,VALID,146,VALID,0,
2013-11-08, 07:17:04,VALID,916.708,VALID,0,VALID,97.0918,VALID,81.2255,VALID,19.8783,VALID,146,VALID,0,
2013-11-08, 07:18:04,VALID,916.724,VALID,0,VALID,97.0766,VALID,82.7297,VALID,19.9173,VALID,146,VALID,0,
2013-11-08, 07:19:04,VALID,916.71,VALID,0,VALID,97.0537,VALID,84.1264,VALID,19.8993,VALID,146,VALID,0,
2013-11-08, 07:20:04,VALID,916.737,VALID,0,VALID,97.0537,VALID,86.2752,VALID,19.8798,VALID,146,VALID,0,
2013-11-08, 07:21:04,VALID,916.753,VALID,0,VALID,97.0461,VALID,88.9613,VALID,19.9188,VALID,146,VALID,0,
2013-11-08, 07:22:04,VALID,916.766,VALID,0,VALID,97.0232,VALID,91.4324,VALID,19.9578,VALID,146,VALID,0,
2013-11-08, 07:23:04,VALID,916.762,VALID,0,VALID,97.0308,VALID,93.7961,VALID,19.9563,VALID,146,VALID,0,
2013-11-08, 07:24:04,VALID,916.744,VALID,0,VALID,97.0232,VALID,96.0524,VALID,20.0553,VALID,146,VALID,0,
2013-11-08, 07:25:04,VALID,916.753,VALID,0,VALID,97.008,VALID,98.3087,VALID,20.0733,VALID,146,VALID,0,
2013-11-08, 07:26:04,VALID,916.767,VALID,0,VALID,97.0003,VALID,100.35,VALID,20.0733,VALID,146,VALID,0,
2013-11-08, 07:27:04,VALID,916.755,VALID,0,VALID,96.9698,VALID,102.391,VALID,20.1318,VALID,146,VALID,0,
2013-11-08, 07:28:04,VALID,916.783,VALID,0,VALID,96.9546,VALID,104.433,VALID,20.1919,VALID,146,VALID,0,
2013-11-08, 07:29:04,VALID,916.769,VALID,0,VALID,96.9165,VALID,106.367,VALID,20.2098,VALID,146,VALID,0,
2013-11-08, 07:30:04,VALID,916.77,VALID,0,VALID,96.8936,VALID,108.193,VALID,20.2098,VALID,146,VALID,0,
2013-11-08, 07:31:04,VALID,916.773,VALID,0,VALID,96.8555,VALID,110.235,VALID,20.2879,VALID,146,VALID,0,
2013-11-08, 07:32:04,VALID,916.775,VALID,0,VALID,96.7945,VALID,112.169,VALID,20.3269,VALID,146,VALID,0,
2013-11-08, 07:33:04,VALID,916.784,VALID,0,VALID,96.764,VALID,113.888,VALID,20.3253,VALID,146,VALID,0,
2013-11-08, 07:34:04,VALID,916.8,VALID,0,VALID,96.6725,VALID,115.284,VALID,20.3479,VALID,146,VALID,0,
2013-11-08, 07:35:04,VALID,916.802,VALID,0,VALID,96.6115,VALID,117.003,VALID,20.4064,VALID,146,VALID,0,
2013-11-08, 07:36:04,VALID,916.832,VALID,0,VALID,96.5658,VALID,118.937,VALID,20.4845,VALID,146,VALID,0,
2013-11-08, 07:37:04,VALID,916.833,VALID,0,VALID,96.5353,VALID,120.764,VALID,20.4829,VALID,149,VALID,0,
2013-11-08, 07:38:04,VALID,916.84,VALID,0,VALID,96.4286,VALID,122.698,VALID,20.4049,VALID,149,VALID,0,
2013-11-08, 07:39:04,VALID,916.869,VALID,0,VALID,96.3295,VALID,123.987,VALID,20.3854,VALID,150,VALID,0,
2013-11-08, 07:40:04,VALID,916.852,VALID,0,VALID,96.2609,VALID,125.276,VALID,20.4244,VALID,152,VALID,0,
2013-11-08, 07:41:04,VALID,916.865,VALID,0,VALID,96.1389,VALID,126.136,VALID,20.4049,VALID,146,VALID,0,
2013-11-08, 07:42:04,VALID,916.88,VALID,0,VALID,96.0474,VALID,126.995,VALID,20.4259,VALID,175,VALID,0,
2013-11-08, 07:43:04,VALID,916.875,VALID,0,VALID,95.9331,VALID,128.714,VALID,20.4439,VALID,161,VALID,0,
2013-11-08, 07:44:04,VALID,916.908,VALID,0,VALID,95.834,VALID,130.756,VALID,20.4829,VALID,156,VALID,0,
2013-11-08, 07:45:04,VALID,916.928,VALID,0,VALID,95.712,VALID,132.797,VALID,20.5024,VALID,149,VALID,0,
2013-11-08, 07:46:04,VALID,916.939,VALID,0,VALID,95.59,VALID,135.591,VALID,20.5219,VALID,148,VALID,0,
2013-11-08, 07:47:04,VALID,916.962,VALID,0,VALID,95.4985,VALID,138.707,VALID,20.5204,VALID,153,VALID,0,
2013-11-08, 07:48:04,VALID,916.978,VALID,0,VALID,95.2698,VALID,140.64,VALID,20.5414,VALID,167,VALID,0,
2013-11-08, 07:49:04,VALID,916.995,VALID,0,VALID,95.0183,VALID,143.004,VALID,20.5219,VALID,167,VALID,0,
2013-11-08, 07:50:04,VALID,917.021,VALID,0,VALID,94.7896,VALID,146.442,VALID,20.5625,VALID,181,VALID,0,
2013-11-08, 07:51:04,VALID,917.052,VALID,0,VALID,94.7057,VALID,148.699,VALID,20.5804,VALID,180,VALID,0,
2013-11-08, 07:52:04,VALID,917.084,VALID,0,VALID,94.2635,VALID,150.847,VALID,20.6015,VALID,166,VALID,0,
2013-11-08, 07:53:04,VALID,917.09,VALID,0,VALID,93.5698,VALID,152.137,VALID,20.5999,VALID,165,VALID,0,
2013-11-08, 07:54:04,VALID,917.124,VALID,0,VALID,93.1581,VALID,154.178,VALID,20.5414,VALID,171,VALID,0,
2013-11-08, 07:55:04,VALID,917.109,VALID,0,VALID,93.1353,VALID,157.938,VALID,20.5625,VALID,171,VALID,0,
2013-11-08, 07:56:04,VALID,917.104,VALID,0,VALID,93.3182,VALID,161.484,VALID,20.6194,VALID,171,VALID,0,
2013-11-08, 07:57:04,VALID,917.118,VALID,0,VALID,93.2344,VALID,165.567,VALID,20.6585,VALID,146,VALID,0,
2013-11-08, 07:58:04,VALID,917.109,VALID,0,VALID,92.838,VALID,170.294,VALID,20.678,VALID,148,VALID,0,
2013-11-08, 07:59:04,VALID,917.126,VALID,0,VALID,92.5635,VALID,175.451,VALID,20.717,VALID,156,VALID,0,
2013-11-08, 08:00:04,VALID,917.106,VALID,0,VALID,92.4644,VALID,180.501,VALID,20.8145,VALID,156,VALID,0,
2013-11-08, 08:01:04,VALID,917.094,VALID,0,VALID,91.8698,VALID,184.584,VALID,20.8145,VALID,156,VALID,0,
2013-11-08, 08:02:04,VALID,917.098,VALID,0,VALID,91.4657,VALID,188.882,VALID,20.834,VALID,156,VALID,0,
2013-11-08, 08:03:04,VALID,917.098,VALID,0,VALID,91.481,VALID,193.072,VALID,20.9136,VALID,158,VALID,0,
2013-11-08, 08:04:04,VALID,917.091,VALID,0,VALID,91.3438,VALID,197.155,VALID,20.9511,VALID,187,VALID,0,
2013-11-08, 08:05:04,VALID,917.073,VALID,0,VALID,91.237,VALID,200.485,VALID,21.0291,VALID,187,VALID,0,
2013-11-08, 08:06:04,VALID,917.121,VALID,0,VALID,91.1684,VALID,203.708,VALID,21.1071,VALID,172,VALID,0,
2013-11-08, 08:07:04,VALID,917.091,VALID,0,VALID,90.5738,VALID,205.32,VALID,21.1852,VALID,162,VALID,0,
2013-11-08, 08:08:04,VALID,917.108,VALID,0,VALID,90.124,VALID,207.899,VALID,21.2827,VALID,162,VALID,0,
2013-11-08, 08:09:04,VALID,917.082,VALID,0,VALID,89.2397,VALID,210.262,VALID,21.3022,VALID,152,VALID,0,
2013-11-08, 08:10:04,VALID,917.097,VALID,0,VALID,88.8128,VALID,212.948,VALID,21.2843,VALID,162,VALID,0,
2013-11-08, 08:11:04,VALID,917.087,VALID,0,VALID,89.5446,VALID,215.097,VALID,21.3022,VALID,176,VALID,0,
2013-11-08, 08:12:04,VALID,917.089,VALID,0,VALID,88.7747,VALID,217.353,VALID,21.3217,VALID,177,VALID,0,
2013-11-08, 08:13:04,VALID,917.06,VALID,0,VALID,88.9576,VALID,223.263,VALID,21.3786,VALID,158,VALID,0,
2013-11-08, 08:14:04,VALID,917.095,VALID,0,VALID,88.8967,VALID,229.494,VALID,21.4583,VALID,144,VALID,0,
2013-11-08, 08:15:04,VALID,917.083,VALID,0,VALID,87.9361,VALID,235.189,VALID,21.4778,VALID,144,VALID,0,
2013-11-08, 08:16:04,VALID,917.087,VALID,0,VALID,88.0581,VALID,242.065,VALID,21.4778,VALID,181,VALID,0,
2013-11-08, 08:17:04,VALID,917.101,VALID,0,VALID,87.0594,VALID,247.652,VALID,21.5363,VALID,178,VALID,0,
2013-11-08, 08:18:04,VALID,917.066,VALID,0,VALID,87.6083,VALID,268.281,VALID,21.6323,VALID,177,VALID,0,
2013-11-08, 08:19:04,VALID,917.074,VALID,0,VALID,87.3796,VALID,264.305,VALID,21.7315,VALID,142,VALID,0,
2013-11-08, 08:20:04,VALID,917.06,VALID,0,VALID,87.7531,VALID,265.38,VALID,21.6696,VALID,167,VALID,0,
2013-11-08, 08:21:04,VALID,917.052,VALID,0,VALID,87.4406,VALID,268.818,VALID,21.7883,VALID,175,VALID,0,
2013-11-08, 08:22:04,VALID,917.021,VALID,0,VALID,86.4038,VALID,267.958,VALID,21.8859,VALID,173,VALID,0,
2013-11-08, 08:23:04,VALID,917.012,VALID,0,VALID,86.8155,VALID,286.438,VALID,21.9249,VALID,108,VALID,0,
2013-11-08, 08:24:04,VALID,917.006,VALID,0,VALID,86.8917,VALID,297.29,VALID,22.003,VALID,109,VALID,0,
2013-11-08, 08:25:04,VALID,917.028,VALID,0,VALID,86.3047,VALID,254.636,VALID,22.1396,VALID,108,VALID,0,
2013-11-08, 08:26:04,VALID,917.015,VALID,0,VALID,84.6199,VALID,244.429,VALID,22.1005,VALID,125,VALID,0,
2013-11-08, 08:27:04,VALID,917.025,VALID,0,VALID,84.7038,VALID,239.379,VALID,22.1201,VALID,107,VALID,0,
2013-11-08, 08:28:04,VALID,917.028,VALID,0,VALID,84.1854,VALID,242.28,VALID,22.1396,VALID,116,VALID,0,
2013-11-08, 08:29:04,VALID,917.043,VALID,0,VALID,83.7432,VALID,248.834,VALID,22.1396,VALID,179,VALID,0,
2013-11-08, 08:30:04,VALID,917.017,VALID,0,VALID,84.1473,VALID,255.602,VALID,22.2176,VALID,179,VALID,0,
2013-11-08, 08:31:04,VALID,917.039,VALID,0,VALID,82.615,VALID,260.008,VALID,22.2176,VALID,171,VALID,0,
2013-11-08, 08:32:04,VALID,917.062,VALID,0,VALID,82.8818,VALID,262.479,VALID,22.1201,VALID,168,VALID,0,
2013-11-08, 08:33:04,VALID,917.056,VALID,0,VALID,83.6899,VALID,261.942,VALID,22.1201,VALID,119,VALID,0,
2013-11-08, 08:34:04,VALID,917.076,VALID,0,VALID,83.6136,VALID,269.14,VALID,22.081,VALID,119,VALID,0,
2013-11-08, 08:35:04,VALID,917.096,VALID,0,VALID,83.4535,VALID,258.503,VALID,22.0598,VALID,134,VALID,0,
2013-11-08, 08:36:04,VALID,917.123,VALID,0,VALID,83.5298,VALID,255.065,VALID,22.1005,VALID,137,VALID,0,
2013-11-08, 08:37:04,VALID,917.145,VALID,0,VALID,83.9948,VALID,245.718,VALID,22.1786,VALID,136,VALID,0,
2013-11-08, 08:38:04,VALID,917.148,VALID,0,VALID,82.8208,VALID,237.338,VALID,22.1574,VALID,128,VALID,0,
2013-11-08, 08:39:04,VALID,917.15,VALID,0,VALID,83.5069,VALID,233.792,VALID,22.1379,VALID,133,VALID,0,
2013-11-08, 08:40:04,VALID,917.164,VALID,0,VALID,83.7127,VALID,278.273,VALID,22.0989,VALID,147,VALID,0,
2013-11-08, 08:41:04,VALID,917.155,VALID,0,VALID,83.2401,VALID,336.613,VALID,22.1964,VALID,147,VALID,0,
2013-11-08, 08:42:04,VALID,917.149,VALID,0,VALID,82.9428,VALID,306.53,VALID,22.294,VALID,147,VALID,0,
2013-11-08, 08:43:04,VALID,917.14,VALID,0,VALID,82.6455,VALID,229.172,VALID,22.4111,VALID,180,VALID,0,
2013-11-08, 08:44:04,VALID,917.168,VALID,0,VALID,82.3481,VALID,189.956,VALID,22.5103,VALID,162,VALID,0,
2013-11-08, 08:45:04,VALID,917.172,VALID,0,VALID,82.249,VALID,184.691,VALID,22.4306,VALID,145,VALID,0,
2013-11-08, 08:46:04,VALID,917.143,VALID,0,VALID,82.028,VALID,179.427,VALID,22.2354,VALID,138,VALID,0,
2013-11-08, 08:47:04,VALID,917.145,VALID,0,VALID,83.0571,VALID,174.699,VALID,22.1786,VALID,148,VALID,0,
2013-11-08, 08:48:04,VALID,917.154,VALID,0,VALID,83.1181,VALID,163.418,VALID,22.081,VALID,148,VALID,0,
2013-11-08, 08:49:04,VALID,917.149,VALID,0,VALID,84.78,VALID,156.112,VALID,22.1217,VALID,142,VALID,0,
2013-11-08, 08:50:04,VALID,917.147,VALID,0,VALID,84.5589,VALID,151.17,VALID,22.042,VALID,134,VALID,0,
2013-11-08, 08:51:04,VALID,917.157,VALID,0,VALID,84.841,VALID,149.988,VALID,21.9851,VALID,134,VALID,0,
2013-11-08, 08:52:04,VALID,917.16,VALID,0,VALID,85.2908,VALID,148.161,VALID,21.9266,VALID,134,VALID,0,
2013-11-08, 08:53:04,VALID,917.143,VALID,0,VALID,86.1217,VALID,149.451,VALID,21.8469,VALID,134,VALID,0,
2013-11-08, 08:54:04,VALID,917.114,VALID,0,VALID,85.6338,VALID,153.963,VALID,21.8664,VALID,134,VALID,0,
2013-11-08, 08:55:04,VALID,917.139,VALID,0,VALID,84.5666,VALID,156.542,VALID,21.8274,VALID,134,VALID,0,
2013-11-08, 08:56:04,VALID,917.158,VALID,0,VALID,85.4509,VALID,157.401,VALID,21.8274,VALID,134,VALID,0,
2013-11-08, 08:57:04,VALID,917.138,VALID,0,VALID,85.0773,VALID,167.501,VALID,21.8664,VALID,134,VALID,0,
2013-11-08, 08:58:04,VALID,917.136,VALID,0,VALID,85.0849,VALID,185.766,VALID,21.9851,VALID,134,VALID,0,
2013-11-08, 08:59:04,VALID,917.124,VALID,0,VALID,84.4522,VALID,208.436,VALID,22.0615,VALID,147,VALID,0,
2013-11-08, 09:00:04,VALID,917.124,VALID,0,VALID,84.8486,VALID,299.438,VALID,22.1786,VALID,135,VALID,0,
2013-11-08, 09:01:04,VALID,917.134,VALID,0,VALID,84.4674,VALID,282.463,VALID,22.2567,VALID,132,VALID,0,
2013-11-08, 09:02:04,VALID,917.135,VALID,0,VALID,84.2616,VALID,303.844,VALID,22.3737,VALID,153,VALID,0,
2013-11-08, 09:03:04,VALID,917.149,VALID,0,VALID,82.2033,VALID,362.936,VALID,22.5299,VALID,158,VALID,0,
2013-11-08, 09:04:04,VALID,917.147,VALID,0,VALID,82.1652,VALID,292.455,VALID,22.7055,VALID,158,VALID,0,
2013-11-08, 09:05:04,VALID,917.11,VALID,0,VALID,81.906,VALID,297.505,VALID,22.8812,VALID,135,VALID,0,
2013-11-08, 09:06:04,VALID,917.113,VALID,0,VALID,80.6939,VALID,287.942,VALID,22.9787,VALID,135,VALID,0,